Ellington Field, TX

12:56 PM CDT on June 23, 2017 (GMT -0500)
Ellington

Weather History for KEFD - November, 2011

Change the Weather History Date:

Tuesday, November 22, 2011

  Actual Average Record
Temperature  
Mean Temperature 65 °F -  
Max Temperature 75 °F 69 °F 82 °F (2003)
Min Temperature 55 °F 50 °F 41 °F (2005)
Growing Degree Days 15 (Base 50)    
Moisture  
Dew Point 65 °F    
Average Humidity 89    
Maximum Humidity 100    
Minimum Humidity 78    
Precipitation  
Precipitation 0.00 in - - ()
Sea Level Pressure  
Sea Level Pressure 30.03 in    
Wind  
Wind Speed 9 mph (NW)    
Max Wind Speed 14 mph    
Max Gust Speed -    
Visibility 8 miles    
Events Rain    
Averages and records for this station are not official NWS values.
T = Trace of Precipitation, MM = Missing Value Source: NWS Daily Summary

Daily Weather History Graph

Daily Weather History Graph

Search for Another Location

Airport or City:

Trip Planner

Search our weather history database for the weather conditions in past years. The results will help you decide how hot, cold, wet, or windy it might be!

Date:

Astronomy

Nov. 22, 2011 Rise Set
Actual Time 6:50 AM CST 5:22 PM CST
Civil Twilight 6:25 AM CST 5:48 PM CST
Nautical Twilight 5:55 AM CST 6:17 PM CST
Astronomical Twilight 5:27 AM CST 6:45 PM CST
Moon 3:51 AM CST (11/22) 3:15 PM CST (11/22)
Length of Visible Light 11h 23m
Length of Day
10h 32m
Waning Crescent, 9% of the Moon is Illuminated
Nov 22
Waning Crescent
Nov 25
New
Dec 2
First Quarter
Dec 10
Full
Dec 17
Last Quarter

Hourly Weather History & Observations

Time (CST) Temp. Dew Point Humidity Pressure Visibility Wind Dir Wind Speed Gust Speed Precip Events Conditions
12:50 AM 75.2 °F 71.6 °F 89% 30.00 in 8.0 mi South 6.9 mph - N/A   Overcast
1:50 AM 75.2 °F 73.4 °F 94% 29.97 in 6.0 mi SSE 11.5 mph - N/A Rain Light Rain
2:50 AM 75.2 °F 73.4 °F 94% 29.94 in 7.0 mi SSE 11.5 mph - N/A   Overcast
3:50 AM 75.2 °F 73.4 °F 94% 29.94 in 7.0 mi South 11.5 mph - N/A   Mostly Cloudy
4:50 AM 73.4 °F 73.4 °F 100% 29.92 in 7.0 mi South 9.2 mph - N/A   Mostly Cloudy
5:50 AM 75.2 °F 73.4 °F 94% 29.95 in 7.0 mi South 8.1 mph - N/A   Overcast
6:50 AM 73.4 °F 73.4 °F 100% 29.94 in 6.0 mi South 8.1 mph - N/A   Drizzle
7:50 AM 75.2 °F 73.4 °F 94% 29.97 in 6.0 mi South 10.4 mph - N/A   Mostly Cloudy
8:50 AM 75.2 °F 73.4 °F 94% 29.99 in 6.0 mi SSW 6.9 mph - N/A   Mostly Cloudy
9:50 AM 75.2 °F 73.4 °F 94% 30.02 in 2.0 mi West 6.9 mph - N/A Rain Rain
10:25 AM 69.8 °F 69.8 °F 100% 30.01 in 4.0 mi NW 8.1 mph - N/A   Mostly Cloudy
10:50 AM 71.6 °F 69.8 °F 94% 30.01 in 6.0 mi NW 8.1 mph - N/A   Mostly Cloudy
11:50 AM 69.8 °F 69.8 °F 100% 30.00 in 6.0 mi NNW 6.9 mph - N/A   Mostly Cloudy
12:50 PM 69.8 °F 68.0 °F 94% 29.99 in 6.0 mi NNW 10.4 mph - N/A   Mostly Cloudy
1:50 PM 68.0 °F 64.4 °F 88% 29.99 in 9.0 mi NNW 11.5 mph - N/A   Mostly Cloudy
2:50 PM 68.0 °F 60.8 °F 78% 30.00 in 10.0 mi NNW 9.2 mph - N/A   Mostly Cloudy
3:50 PM 66.2 °F 59.0 °F 78% 30.01 in 10.0 mi NNW 9.2 mph - N/A   Mostly Cloudy
4:50 PM 66.2 °F 59.0 °F 78% 30.03 in 10.0 mi NNW 10.4 mph - N/A   Mostly Cloudy
5:50 PM 62.6 °F 57.2 °F 82% 30.06 in 10.0 mi NNW 12.7 mph - N/A   Mostly Cloudy
6:19 PM 60.8 °F 55.4 °F 82% 30.09 in 10.0 mi NNW 12.7 mph - N/A   Mostly Cloudy
6:50 PM 59.0 °F 53.6 °F 82% 30.11 in 10.0 mi North 13.8 mph - N/A   Overcast
7:50 PM 59.0 °F 53.6 °F 82% 30.14 in 10.0 mi NNW 13.8 mph - N/A   Mostly Cloudy
8:50 PM 59.0 °F 53.6 °F 82% 30.16 in 10.0 mi NNW 11.5 mph - N/A   Mostly Cloudy
9:50 PM 57.2 °F 51.8 °F 82% 30.18 in 10.0 mi NNW 9.2 mph - N/A   Mostly Cloudy
10:50 PM 55.4 °F 51.8 °F 88% 30.19 in 10.0 mi North 8.1 mph - N/A   Mostly Cloudy
11:50 PM 55.4 °F 51.8 °F 88% 30.20 in 10.0 mi North 8.1 mph - N/A   Mostly Cloudy